CZ-2D DEB, 44611

Orbit data source: Space-Track

CZ-2D DEB, 44611 is space debris in SSO originally from a launch on Mon, 09 Oct 2017 UTC launched from the Jiuquan Satellite Launch Center, China (JSC). Debris objects in space refer to the collection of defunct objects orbiting the Earth. Examples of debris include non-operational satellites, rocket bodies, and fragments generated from explosions, collisions, or faulty payload assembly.

Loading next visibility...
Identifier
44611, 2017-060D
Orbit
SSO
Last TLE update
17 hours ago
Origin
Manufacturer
Unknown
Mission
Spacecraft
Bus & Motor
Unknown
Mass
Unknown
Launch date (UTC)
2017-10-09 (8 years ago)
Launch vehicle
Unknown
Launch site
Jiuquan Satellite Launch Center, China (JSC)
Object type
Payload
Rocket body
Debris
Shape & HBR
Unknown
Radar Cross Section
Small (<0.1 m²)

Expand to show TLE details & history

TLE from 17 hours ago
0 CZ-2D DEB
1 44611U 17060D   25181.35780923  .00002789  00000-0  28537-3 0  9998
2 44611  98.1855 317.9221 0030454 190.6249 169.4329 14.91080956414631
Epoch: 2025-06-30T08:35Z
TLE epoch observation values (Epoch: 2025-06-30T08:35:14.717Z)
Latitude
0.00004°
Longitude
-89.55799°
Altitude
618.473 km
Speed
7.538 km/s
True Right ascension
21h 11m 41s
True Declination
0° 00' 00"
Sunlit
Object was in full shadow at epoch
Visualization orbit readout
Latitude
3.63694°
Longitude
91.69284°
Altitude
576.41 km
Speed
7.584 km/s
Apparent Right ascension
06h 21m 21s
Apparent Declination
-31° 23' 43"
Sunlit
Object is in daylight
Visualization observer readout
Local Sidereal Time
13:05:51
Azimuth
250.665° W
Elevation
-27.424°
Doppler factor
1
Orbital elements
Apogee altitude
612.828 km
Perigee altitude
570.377 km
Semi-major axis
6,969.74 km
Eccentricity
0.00305
Inclination
98.1855°
RAAN
317.9221°
Arg. of periapsis
190.6249°
True anomaly
Unknown
Mean anomaly
169.4329°
Eccentric anomaly
Unknown
Mean motion
3.73008 °/min
Orbital period
96.51 mins
BSTAR
0.00028537
Loading maneuver chart data...
Loading SW <> Apogee altitude chart data...
Loading historical data...
Loading historical data...
Loading historical data...
Loading historical data...
Loading historical data...
Loading historical data...
Loading historical data...
Other satellites on launch #60 in the year 2017 (2017-10-09 UTC)

CZ-2D DEB Visibility forecast

Observer location: undefined°, undefined°

Span
Click to sort rows by Start time (UTC) header in descending order
Start Az.
Max El. time (UTC)
Max El. Az.
Max El.
End time (UTC)
End Az.
8 mins2025-07-01 08:51:53.043Z153.469° SSE2025-07-01 08:55:53.043Z68.372° E41.295°2025-07-01 08:59:53.043Z354.6° N
6 mins2025-07-01 22:12:53.043Z2.912° NNE2025-07-01 22:14:53.043Z317.943° NNW42.219°2025-07-01 22:18:53.043Z203.028° SW
|